星链-36971(STARLINK-36971)

导读

STARLINK-36971(NORAD编号68165)是SpaceX星链星座中的第二代低轨互联网卫星。卫星采用紧凑平板设计,配备相控阵天线与星间激光链路,支持高速低延迟宽带通信,可同时连接多地面终端,提升频谱利用率与通信容量。作为星链全球网络的组成部分,它运行在近地轨道,为全球提供互联网接入服务,支持流媒体、视频通话等应用。该卫星遵循星链标准退役机制,退役后将受控再入大气层,坠入无人海域,降低空间碎片与地面安全风险,是星链持续扩容、技术迭代的典型单元。

基本信息
目录编号:
68165
目录名称:
STARLINK-36971
国际标识:
2026-049Z
轨道中心:
EARTH
卫星名称:
星链-36971
卫星全名:
星链-36971(STARLINK-36971)
卫星状态:
在轨 (已飞行183 天)
发射日期:
2026-03-13 UTC
国别 :
美国 (US)
星等 :
--
该卫星已列入 空间交会检测服务 Space Conjunction Data Service (SCDS) ,当前飞行风险评估等级: 无高风险
轨道信息
数据来源 国际轨道数据
星历时间: 2026-09-11T22:53:46+0800
16小时前
查看轨道信息
半长轴: 6843.659km
偏心率: 0.0002796
轨道倾角: 97.281°
近地点辐角 71.364°
升交点赤经 274.754°
平近点角 288.791°
近地点: 463.608km
远地点: 467.436km
周期: 93.906分钟
每日圈数: 15.334524
详细信息
固有亮度:
5
最大亮度:
2.5
卫星平台:
Starlink V1.0
覆盖范围:
全球
运营商:
太空探索技术公司
运营商所在国:
美国
制造商(研发单位):
太空探索技术公司
制造商所在国:
美国
使用方式:
暂无
卫星简介
Starlink 计划是 SpaceX 推出的全球卫星互联网项目,通过发射低轨道卫星,为全球尤其是偏远地区提供高速、低延迟的互联网服务。自 2019 年起,Starlink 已部署数千颗卫星,旨在缩小全球数字鸿沟,推动互联网普及。该项目还为军事、航空等行业提供通信支持,带来广泛经济效益。
2D轨道图
3D轨道图
轨道高度分析图
轨道倾角分析图
轨道综合分析图
查看轨道综合分析图
交会数据列表
事件ID 空间交会对象 最接近时刻(TCA) 交会距离 交会风险概率(CRP) 交会风险指数(CRI) 操作
CDM_260914-084305-478706-816521
2026-09-14T
08:43:21+0000
1.240 km
极远距离
6.74837E-6 低风险 0.52
CDM_260914-204806-816506-930921
2026-09-14T
20:48:18+0000
1.044 km
极远距离
3.474105E-6 低风险 0.46
CDM_260914-182706-816506-930921
2026-09-14T
18:27:21+0000
1.122 km
极远距离
2.740284E-6 低风险 0.44
CDM_260912-181206-635006-816521
2026-09-12T
18:12:38+0000
2.434 km
极远距离
1.835957E-6 低风险 0.4
CDM_260913-191704-781506-816521
2026-09-13T
19:17:29+0000
2.470 km
极远距离
1.789578E-6 低风险 0.4
CDM_260914-120105-171606-816521
2026-09-14T
12:01:52+0000
2.276 km
极远距离
1.751472E-6 低风险 0.4
CDM_260913-022005-146206-816521
2026-09-13T
02:20:26+0000
2.593 km
极远距离
1.575224E-6 低风险 0.39
CDM_260913-160305-815806-816521
2026-09-13T
16:03:15+0000
2.983 km
极远距离
1.322283E-6 低风险 0.37
CDM_260914-065205-194706-816522
OBJECT B (51947)
2026-09-14T
06:52:21+0000
2.366 km
极远距离
1.301952E-6 低风险 0.37
CDM_260913-040606-488006-816521
OBJECT E (64880)
2026-09-13T
04:06:22+0000
2.369 km
极远距离
1.192345E-6 低风险 0.37
与全量物体交会距离演化趋势
与全量物体交会风险概率演化趋势